Time,TemperatureF,DewpointF,PressureIn,WindDirection,WindDirectionDegrees,WindSpeedMPH,WindSpeedGustMPH,Humidity,HourlyPrecipIn,Conditions,Clouds,dailyrainin,SoftwareType,DateUTC
2013-03-04 00:00:00,35.5,24.9,30.19,SSW,205,0.0,0.0,65,0.00,,CLR,0.00,VWS V14.01,2013-03-04 05:00:00,
2013-03-04 00:01:00,35.5,24.5,30.19,SSW,206,0.0,0.0,64,0.00,,CLR,0.00,VWS V14.01,2013-03-04 05:01:00,
2013-03-04 00:04:00,35.5,24.9,30.19,SSW,206,0.0,0.0,65,0.00,,CLR,0.00,VWS V14.01,2013-03-04 05:04:00,
2013-03-04 00:09:00,35.5,24.5,30.19,SSW,207,0.0,0.0,64,0.00,,CLR,0.00,VWS V14.01,2013-03-04 05:09:00,
2013-03-04 00:14:00,35.3,24.4,30.19,WSW,250,0.0,0.0,64,0.00,,CLR,0.00,VWS V14.01,2013-03-04 05:14:00,
2013-03-04 00:19:00,35.3,24.4,30.19,SW,224,0.0,1.0,64,0.00,,CLR,0.00,VWS V14.01,2013-03-04 05:19:00,
2013-03-04 00:24:00,35.2,24.3,30.19,SW,224,0.0,0.0,64,0.00,,CLR,0.00,VWS V14.01,2013-03-04 05:24:00,
2013-03-04 00:30:00,35.0,24.1,30.19,SW,231,1.0,3.0,64,0.00,,CLR,0.00,VWS V14.01,2013-03-04 05:30:00,
2013-03-04 00:35:00,35.0,24.4,30.19,SSE,159,0.0,1.0,65,0.00,,CLR,0.00,VWS V14.01,2013-03-04 05:35:00,
2013-03-04 00:40:00,35.0,24.4,30.19,West,262,0.0,0.0,65,0.00,,CLR,0.00,VWS V14.01,2013-03-04 05:40:00,
2013-03-04 00:45:00,34.9,24.3,30.19,WSW,248,0.0,2.0,65,0.00,,CLR,0.00,VWS V14.01,2013-03-04 05:45:00,
2013-03-04 00:50:00,34.7,24.5,30.19,South,170,0.0,0.0,66,0.00,,CLR,0.00,VWS V14.01,2013-03-04 05:50:00,
2013-03-04 00:55:00,34.7,24.5,30.19,SW,224,0.0,0.0,66,0.00,,CLR,0.00,VWS V14.01,2013-03-04 05:55:00,
2013-03-04 01:00:00,34.6,24.1,30.19,SW,232,0.0,0.0,65,0.00,,CLR,0.00,VWS V14.01,2013-03-04 06:00:00,
2013-03-04 01:05:00,34.6,24.1,30.20,WSW,250,0.0,1.0,65,0.00,,CLR,0.00,VWS V14.01,2013-03-04 06:05:00,
2013-03-04 01:10:00,34.6,24.1,30.20,SW,219,0.0,1.0,65,0.00,,CLR,0.00,VWS V14.01,2013-03-04 06:10:00,
2013-03-04 01:15:00,34.6,24.1,30.20,SSW,195,0.0,0.0,65,0.00,,CLR,0.00,VWS V14.01,2013-03-04 06:15:00,
2013-03-04 01:20:00,34.4,23.9,30.20,WSW,240,0.0,0.0,65,0.00,,CLR,0.00,VWS V14.01,2013-03-04 06:20:00,
2013-03-04 01:25:00,34.3,23.8,30.20,WSW,240,0.0,0.0,65,0.00,,CLR,0.00,VWS V14.01,2013-03-04 06:25:00,
2013-03-04 01:31:00,34.1,24.0,30.20,WSW,240,0.0,0.0,66,0.00,,CLR,0.00,VWS V14.01,2013-03-04 06:31:00,
2013-03-04 01:36:00,34.1,24.0,30.20,WSW,241,0.0,1.0,66,0.00,,CLR,0.00,VWS V14.01,2013-03-04 06:36:00,
2013-03-04 01:41:00,34.0,23.9,30.20,WSW,241,0.0,0.0,66,0.00,,CLR,0.00,VWS V14.01,2013-03-04 06:41:00,
2013-03-04 01:46:00,33.8,23.7,30.20,WSW,241,0.0,0.0,66,0.00,,CLR,0.00,VWS V14.01,2013-03-04 06:46:00,
2013-03-04 01:51:00,33.8,23.7,30.20,WSW,241,1.0,1.0,66,0.00,,CLR,0.00,VWS V14.01,2013-03-04 06:51:00,
2013-03-04 01:56:00,33.7,23.6,30.20,South,178,0.0,0.0,66,0.00,,CLR,0.00,VWS V14.01,2013-03-04 06:56:00,
2013-03-04 02:01:00,33.7,23.9,30.20,WNW,283,0.0,0.0,67,0.00,,CLR,0.00,VWS V14.01,2013-03-04 07:01:00,
2013-03-04 02:06:00,33.5,23.7,30.20,WNW,283,0.0,0.0,67,0.00,,CLR,0.00,VWS V14.01,2013-03-04 07:06:00,
2013-03-04 02:11:00,33.4,24.0,30.20,WNW,283,0.0,0.0,68,0.00,,CLR,0.00,VWS V14.01,2013-03-04 07:11:00,
2013-03-04 02:16:00,33.2,24.1,30.21,WNW,284,0.0,0.0,69,0.00,,CLR,0.00,VWS V14.01,2013-03-04 07:16:00,
2013-03-04 02:22:00,33.1,24.0,30.21,WNW,284,0.0,0.0,69,0.00,,CLR,0.00,VWS V14.01,2013-03-04 07:22:00,
2013-03-04 02:27:00,33.1,24.0,30.21,WNW,284,0.0,0.0,69,0.00,,CLR,0.00,VWS V14.01,2013-03-04 07:27:00,
2013-03-04 02:32:00,32.9,23.9,30.21,WSW,254,0.0,1.0,69,0.00,,CLR,0.00,VWS V14.01,2013-03-04 07:32:00,
2013-03-04 02:37:00,32.8,23.8,30.21,WSW,254,0.0,0.0,69,0.00,,CLR,0.00,VWS V14.01,2013-03-04 07:37:00,
2013-03-04 02:42:00,32.7,24.0,30.21,WSW,254,0.0,0.0,70,0.00,,CLR,0.00,VWS V14.01,2013-03-04 07:42:00,
2013-03-04 02:47:00,32.5,23.8,30.21,WSW,254,0.0,0.0,70,0.00,,CLR,0.00,VWS V14.01,2013-03-04 07:47:00,
2013-03-04 02:52:00,32.5,24.2,30.21,WSW,254,0.0,0.0,71,0.00,,CLR,0.00,VWS V14.01,2013-03-04 07:52:00,
2013-03-04 02:57:00,32.4,24.1,30.21,WSW,255,0.0,0.0,71,0.00,,CLR,0.00,VWS V14.01,2013-03-04 07:57:00,
2013-03-04 03:02:00,32.4,24.1,30.21,WSW,255,0.0,0.0,71,0.00,,CLR,0.00,VWS V14.01,2013-03-04 08:02:00,
2013-03-04 03:08:00,32.5,24.2,30.21,WSW,255,0.0,0.0,71,0.00,,CLR,0.00,VWS V14.01,2013-03-04 08:08:00,
2013-03-04 03:13:00,32.4,24.1,30.21,WSW,255,0.0,0.0,71,0.00,,CLR,0.00,VWS V14.01,2013-03-04 08:13:00,
2013-03-04 03:18:00,32.2,23.9,30.22,WSW,255,0.0,0.0,71,0.00,,CLR,0.00,VWS V14.01,2013-03-04 08:18:00,
2013-03-04 03:23:00,31.9,23.9,30.22,WSW,255,0.0,0.0,72,0.00,,CLR,0.00,VWS V14.01,2013-03-04 08:23:00,
2013-03-04 03:28:00,31.8,23.8,30.22,WSW,254,0.0,0.0,72,0.00,,CLR,0.00,VWS V14.01,2013-03-04 08:28:00,
2013-03-04 03:33:00,31.8,23.8,30.23,WSW,255,0.0,0.0,72,0.00,,CLR,0.00,VWS V14.01,2013-03-04 08:33:00,
2013-03-04 03:38:00,31.8,23.8,30.23,WSW,255,0.0,0.0,72,0.00,,CLR,0.00,VWS V14.01,2013-03-04 08:38:00,
2013-03-04 03:43:00,31.8,24.1,30.23,WSW,255,0.0,0.0,73,0.00,,CLR,0.00,VWS V14.01,2013-03-04 08:43:00,
2013-03-04 03:48:00,31.8,23.8,30.23,WSW,255,0.0,0.0,72,0.00,,CLR,0.00,VWS V14.01,2013-03-04 08:48:00,
2013-03-04 03:53:00,31.9,23.9,30.23,WSW,255,0.0,0.0,72,0.00,,CLR,0.00,VWS V14.01,2013-03-04 08:53:00,
2013-03-04 03:58:00,31.9,24.2,30.23,WSW,255,0.0,0.0,73,0.00,,CLR,0.00,VWS V14.01,2013-03-04 08:58:00,
2013-03-04 04:04:00,31.9,24.2,30.24,WSW,255,0.0,0.0,73,0.00,,CLR,0.00,VWS V14.01,2013-03-04 09:04:00,
2013-03-04 04:09:00,31.9,23.9,30.24,WSW,255,0.0,0.0,72,0.00,,CLR,0.00,VWS V14.01,2013-03-04 09:09:00,
2013-03-04 04:14:00,31.9,24.2,30.24,WSW,255,0.0,0.0,73,0.00,,CLR,0.00,VWS V14.01,2013-03-04 09:14:00,
2013-03-04 04:19:00,31.8,24.1,30.24,WSW,255,0.0,0.0,73,0.00,,CLR,0.00,VWS V14.01,2013-03-04 09:19:00,
2013-03-04 04:24:00,31.6,24.0,30.24,WSW,255,0.0,0.0,73,0.00,,CLR,0.00,VWS V14.01,2013-03-04 09:24:00,
2013-03-04 04:29:00,31.5,23.9,30.24,WSW,255,0.0,0.0,73,0.00,,CLR,0.00,VWS V14.01,2013-03-04 09:29:00,
2013-03-04 04:34:00,31.3,24.0,30.25,WSW,255,0.0,0.0,74,0.00,,CLR,0.00,VWS V14.01,2013-03-04 09:34:00,
2013-03-04 04:39:00,31.3,24.0,30.25,WSW,256,0.0,0.0,74,0.00,,CLR,0.00,VWS V14.01,2013-03-04 09:39:00,
2013-03-04 04:44:00,31.5,24.2,30.25,WSW,256,0.0,0.0,74,0.00,,CLR,0.00,VWS V14.01,2013-03-04 09:44:00,
2013-03-04 04:49:00,31.3,24.0,30.26,WSW,256,0.0,0.0,74,0.00,,CLR,0.00,VWS V14.01,2013-03-04 09:49:00,
2013-03-04 04:54:00,31.3,23.7,30.26,WSW,256,0.0,0.0,73,0.00,,CLR,0.00,VWS V14.01,2013-03-04 09:54:00,
2013-03-04 04:59:00,31.3,23.7,30.26,WSW,256,0.0,0.0,73,0.00,,CLR,0.00,VWS V14.01,2013-03-04 09:59:00,
2013-03-04 05:04:00,31.2,23.6,30.27,WSW,256,0.0,0.0,73,0.00,,CLR,0.00,VWS V14.01,2013-03-04 10:04:00,
2013-03-04 05:09:00,31.2,23.6,30.27,WSW,256,0.0,0.0,73,0.00,,CLR,0.00,VWS V14.01,2013-03-04 10:09:00,
2013-03-04 05:14:00,31.2,23.6,30.27,WSW,256,0.0,0.0,73,0.00,,CLR,0.00,VWS V14.01,2013-03-04 10:14:00,
2013-03-04 05:20:00,31.2,23.6,30.28,WSW,256,0.0,0.0,73,0.00,,CLR,0.00,VWS V14.01,2013-03-04 10:20:00,
2013-03-04 05:25:00,31.2,23.6,30.28,WSW,256,0.0,0.0,73,0.00,,CLR,0.00,VWS V14.01,2013-03-04 10:25:00,
2013-03-04 05:30:00,31.2,23.6,30.28,WSW,256,0.0,0.0,73,0.00,,CLR,0.00,VWS V14.01,2013-03-04 10:30:00,
2013-03-04 05:35:00,31.2,23.9,30.29,WSW,256,0.0,0.0,74,0.00,,CLR,0.00,VWS V14.01,2013-03-04 10:35:00,
2013-03-04 05:40:00,31.0,23.4,30.29,WSW,256,0.0,0.0,73,0.00,,CLR,0.00,VWS V14.01,2013-03-04 10:40:00,
2013-03-04 05:45:00,30.9,23.6,30.29,WSW,256,0.0,0.0,74,0.00,,CLR,0.00,VWS V14.01,2013-03-04 10:45:00,
2013-03-04 05:50:00,30.7,23.4,30.29,WSW,256,0.0,0.0,74,0.00,,CLR,0.00,VWS V14.01,2013-03-04 10:50:00,
2013-03-04 05:55:00,30.6,23.3,30.29,WSW,256,0.0,0.0,74,0.00,,CLR,0.00,VWS V14.01,2013-03-04 10:55:00,
2013-03-04 06:00:00,30.3,23.0,30.29,WSW,256,0.0,0.0,74,0.00,,CLR,0.00,VWS V14.01,2013-03-04 11:00:00,
2013-03-04 06:05:00,30.1,23.1,30.30,WSW,256,0.0,0.0,75,0.00,,CLR,0.00,VWS V14.01,2013-03-04 11:05:00,
2013-03-04 06:10:00,30.0,23.0,30.30,WSW,256,0.0,0.0,75,0.00,,CLR,0.00,VWS V14.01,2013-03-04 11:10:00,
2013-03-04 06:15:00,30.0,23.0,30.30,WSW,256,0.0,0.0,75,0.00,,CLR,0.00,VWS V14.01,2013-03-04 11:15:00,
2013-03-04 06:20:00,30.0,23.0,30.31,WSW,256,0.0,0.0,75,0.00,,CLR,0.00,VWS V14.01,2013-03-04 11:20:00,
2013-03-04 06:26:00,29.8,23.2,30.31,WSW,256,0.0,0.0,76,0.00,,CLR,0.00,VWS V14.01,2013-03-04 11:26:00,
2013-03-04 06:31:00,29.5,22.9,30.31,WSW,256,0.0,0.0,76,0.00,,CLR,0.00,VWS V14.01,2013-03-04 11:31:00,
2013-03-04 06:36:00,29.4,22.8,30.31,WSW,256,0.0,0.0,76,0.00,,CLR,0.00,VWS V14.01,2013-03-04 11:36:00,
2013-03-04 06:41:00,29.4,23.1,30.31,WSW,256,0.0,0.0,77,0.00,,CLR,0.00,VWS V14.01,2013-03-04 11:41:00,
2013-03-04 06:46:00,29.4,23.1,30.31,WSW,256,0.0,0.0,77,0.00,,CLR,0.00,VWS V14.01,2013-03-04 11:46:00,
2013-03-04 06:51:00,29.1,22.8,30.31,WSW,256,0.0,0.0,77,0.00,,CLR,0.00,VWS V14.01,2013-03-04 11:51:00,
2013-03-04 06:56:00,28.8,22.5,30.31,WSW,256,0.0,0.0,77,0.00,,CLR,0.00,VWS V14.01,2013-03-04 11:56:00,
2013-03-04 07:01:00,28.5,22.5,30.31,WSW,256,0.0,0.0,78,0.00,,CLR,0.00,VWS V14.01,2013-03-04 12:01:00,
2013-03-04 07:06:00,28.2,22.5,30.31,WSW,256,0.0,0.0,79,0.00,,CLR,0.00,VWS V14.01,2013-03-04 12:06:00,
2013-03-04 07:11:00,28.2,22.5,30.31,WSW,256,0.0,0.0,79,0.00,,CLR,0.00,VWS V14.01,2013-03-04 12:11:00,
2013-03-04 07:16:00,28.7,23.6,30.31,WSW,256,0.0,0.0,81,0.00,,CLR,0.00,VWS V14.01,2013-03-04 12:16:00,
2013-03-04 07:21:00,29.3,24.2,30.32,WSW,256,0.0,0.0,81,0.00,,CLR,0.00,VWS V14.01,2013-03-04 12:21:00,
2013-03-04 07:26:00,30.0,24.3,30.32,WSW,256,0.0,0.0,79,0.00,,CLR,0.00,VWS V14.01,2013-03-04 12:26:00,
2013-03-04 07:31:00,30.6,24.6,30.32,WSW,256,0.0,0.0,78,0.00,,CLR,0.00,VWS V14.01,2013-03-04 12:31:00,
2013-03-04 07:36:00,31.0,24.6,30.34,WSW,256,0.0,0.0,77,0.00,,CLR,0.00,VWS V14.01,2013-03-04 12:36:00,
2013-03-04 07:41:00,31.3,24.6,30.34,WSW,256,0.0,0.0,76,0.00,,CLR,0.00,VWS V14.01,2013-03-04 12:41:00,
2013-03-04 07:46:00,31.8,24.8,30.34,WSW,257,0.0,0.0,75,0.00,,CLR,0.00,VWS V14.01,2013-03-04 12:46:00,
2013-03-04 07:51:00,32.1,24.8,30.33,WSW,257,0.0,0.0,74,0.00,,CLR,0.00,VWS V14.01,2013-03-04 12:51:00,
2013-03-04 07:56:00,32.7,25.3,30.33,WSW,257,0.0,0.0,74,0.00,,CLR,0.00,VWS V14.01,2013-03-04 12:56:00,
2013-03-04 08:01:00,33.2,25.2,30.33,WSW,256,0.0,0.0,72,0.00,,CLR,0.00,VWS V14.01,2013-03-04 13:01:00,
2013-03-04 08:06:00,34.0,25.3,30.34,WNW,293,0.0,0.0,70,0.00,,CLR,0.00,VWS V14.01,2013-03-04 13:06:00,
2013-03-04 08:11:00,34.3,24.9,30.34,SW,225,0.0,0.0,68,0.00,,CLR,0.00,VWS V14.01,2013-03-04 13:11:00,
2013-03-04 08:16:00,34.7,24.5,30.34,SW,225,0.0,0.0,66,0.00,,CLR,0.00,VWS V14.01,2013-03-04 13:16:00,
2013-03-04 08:21:00,35.2,25.0,30.34,WSW,255,0.0,0.0,66,0.00,,CLR,0.00,VWS V14.01,2013-03-04 13:21:00,
2013-03-04 08:26:00,35.9,25.3,30.34,WSW,255,0.0,0.0,65,0.00,,CLR,0.00,VWS V14.01,2013-03-04 13:26:00,
2013-03-04 08:32:00,36.8,25.0,30.34,WSW,257,0.0,0.0,62,0.00,,CLR,0.00,VWS V14.01,2013-03-04 13:32:00,
2013-03-04 08:37:00,37.3,25.1,30.34,WSW,257,0.0,0.0,61,0.00,,CLR,0.00,VWS V14.01,2013-03-04 13:37:00,
2013-03-04 08:42:00,37.8,24.0,30.34,SSW,208,0.0,0.0,57,0.00,,CLR,0.00,VWS V14.01,2013-03-04 13:42:00,
2013-03-04 08:47:00,37.9,24.5,30.34,South,172,0.0,0.0,58,0.00,,CLR,0.00,VWS V14.01,2013-03-04 13:47:00,
2013-03-04 08:52:00,38.5,24.6,30.34,SSE,166,0.0,0.0,57,0.00,,CLR,0.00,VWS V14.01,2013-03-04 13:52:00,
2013-03-04 08:57:00,39.2,24.0,30.34,SSE,160,0.0,0.0,54,0.00,,CLR,0.00,VWS V14.01,2013-03-04 13:57:00,
2013-03-04 09:02:00,40.1,24.8,30.34,North,350,0.0,1.0,54,0.00,,CLR,0.00,VWS V14.01,2013-03-04 14:02:00,
2013-03-04 09:07:00,40.5,22.9,30.34,ENE,77,0.0,0.0,49,0.00,,CLR,0.00,VWS V14.01,2013-03-04 14:07:00,
2013-03-04 09:12:00,40.9,23.2,30.34,NNE,13,0.0,0.0,49,0.00,,CLR,0.00,VWS V14.01,2013-03-04 14:12:00,
2013-03-04 09:17:00,41.3,21.0,30.34,NNW,345,0.0,3.0,44,0.00,,CLR,0.00,VWS V14.01,2013-03-04 14:17:00,
2013-03-04 09:22:00,41.6,21.3,30.34,NW,314,0.0,1.0,44,0.00,,CLR,0.00,VWS V14.01,2013-03-04 14:22:00,
2013-03-04 09:27:00,41.6,22.9,30.34,WSW,238,0.0,0.0,47,0.00,,CLR,0.00,VWS V14.01,2013-03-04 14:27:00,
2013-03-04 09:32:00,41.2,22.5,30.35,WSW,257,0.0,1.0,47,0.00,,CLR,0.00,VWS V14.01,2013-03-04 14:32:00,
2013-03-04 09:37:00,41.3,20.5,30.35,West,261,0.0,0.0,43,0.00,,CLR,0.00,VWS V14.01,2013-03-04 14:37:00,
2013-03-04 09:42:00,41.8,20.4,30.35,NNE,13,0.0,3.0,42,0.00,,CLR,0.00,VWS V14.01,2013-03-04 14:42:00,
2013-03-04 09:47:00,42.5,21.0,30.35,NW,305,0.0,0.0,42,0.00,,CLR,0.00,VWS V14.01,2013-03-04 14:47:00,
2013-03-04 09:52:00,42.5,19.3,30.35,SW,235,0.0,4.0,39,0.00,,CLR,0.00,VWS V14.01,2013-03-04 14:52:00,
2013-03-04 09:57:00,42.5,18.7,30.35,West,259,4.0,5.0,38,0.00,,CLR,0.00,VWS V14.01,2013-03-04 14:57:00,
2013-03-04 10:02:00,42.5,19.9,30.35,West,278,0.0,2.0,40,0.00,,CLR,0.00,VWS V14.01,2013-03-04 15:02:00,
2013-03-04 10:07:00,43.2,20.5,30.35,North,357,0.0,1.0,40,0.00,,CLR,0.00,VWS V14.01,2013-03-04 15:07:00,
2013-03-04 10:12:00,44.1,20.7,30.35,West,268,0.0,0.0,39,0.00,,CLR,0.00,VWS V14.01,2013-03-04 15:12:00,
2013-03-04 10:17:00,44.3,19.7,30.35,SW,224,0.0,1.0,37,0.00,,CLR,0.00,VWS V14.01,2013-03-04 15:17:00,
2013-03-04 10:22:00,44.9,20.9,30.35,ENE,63,0.0,0.0,38,0.00,,CLR,0.00,VWS V14.01,2013-03-04 15:22:00,
2013-03-04 10:27:00,44.5,20.5,30.35,WSW,243,0.0,0.0,38,0.00,,CLR,0.00,VWS V14.01,2013-03-04 15:27:00,
2013-03-04 10:32:00,44.2,20.2,30.35,SSE,167,0.0,2.0,38,0.00,,CLR,0.00,VWS V14.01,2013-03-04 15:32:00,
2013-03-04 10:37:00,44.9,20.2,30.35,West,266,0.0,0.0,37,0.00,,CLR,0.00,VWS V14.01,2013-03-04 15:37:00,
2013-03-04 10:42:00,45.4,18.7,30.35,West,266,2.0,3.0,34,0.00,,CLR,0.00,VWS V14.01,2013-03-04 15:42:00,
2013-03-04 10:47:00,45.4,21.3,30.35,NE,54,0.0,2.0,38,0.00,,CLR,0.00,VWS V14.01,2013-03-04 15:47:00,
2013-03-04 10:52:00,46.1,20.0,30.35,WSW,238,0.0,2.0,35,0.00,,CLR,0.00,VWS V14.01,2013-03-04 15:52:00,
2013-03-04 10:57:00,45.8,19.7,30.35,East,99,0.0,1.0,35,0.00,,CLR,0.00,VWS V14.01,2013-03-04 15:57:00,
2013-03-04 11:02:00,46.1,19.3,30.34,WNW,298,0.0,4.0,34,0.00,,CLR,0.00,VWS V14.01,2013-03-04 16:02:00,
2013-03-04 11:07:00,46.5,21.0,30.34,SSW,212,0.0,2.0,36,0.00,,CLR,0.00,VWS V14.01,2013-03-04 16:07:00,
2013-03-04 11:12:00,46.5,19.7,30.34,WSW,240,1.0,5.0,34,0.00,,CLR,0.00,VWS V14.01,2013-03-04 16:12:00,
2013-03-04 11:17:00,46.2,20.1,30.33,North,358,0.0,1.0,35,0.00,,CLR,0.00,VWS V14.01,2013-03-04 16:17:00,
2013-03-04 11:23:00,46.4,20.9,30.33,SW,229,0.0,0.0,36,0.00,,CLR,0.00,VWS V14.01,2013-03-04 16:23:00,
2013-03-04 11:28:00,47.4,19.8,30.33,NE,37,0.0,2.0,33,0.00,,CLR,0.00,VWS V14.01,2013-03-04 16:28:00,
2013-03-04 11:33:00,47.6,19.2,30.33,NW,305,0.0,2.0,32,0.00,,CLR,0.00,VWS V14.01,2013-03-04 16:33:00,
2013-03-04 11:38:00,48.8,20.3,30.33,WNW,297,0.0,2.0,32,0.00,,CLR,0.00,VWS V14.01,2013-03-04 16:38:00,
2013-03-04 11:43:00,49.5,19.4,30.33,WSW,250,0.0,3.0,30,0.00,,CLR,0.00,VWS V14.01,2013-03-04 16:43:00,
2013-03-04 11:48:00,49.5,18.6,30.32,SSW,210,0.0,1.0,29,0.00,,CLR,0.00,VWS V14.01,2013-03-04 16:48:00,
2013-03-04 11:53:00,48.8,18.0,30.32,SSE,152,0.0,2.0,29,0.00,,CLR,0.00,VWS V14.01,2013-03-04 16:53:00,
2013-03-04 11:58:00,48.5,18.5,30.32,WSW,249,3.0,4.0,30,0.00,,CLR,0.00,VWS V14.01,2013-03-04 16:58:00,
2013-03-04 12:03:00,48.0,20.3,30.32,SW,233,0.0,0.0,33,0.00,,CLR,0.00,VWS V14.01,2013-03-04 17:03:00,
2013-03-04 12:08:00,48.8,20.3,30.32,SSE,151,0.0,2.0,32,0.00,,CLR,0.00,VWS V14.01,2013-03-04 17:08:00,
2013-03-04 12:13:00,50.1,20.7,30.32,SW,225,3.0,3.0,31,0.00,,CLR,0.00,VWS V14.01,2013-03-04 17:13:00,
2013-03-04 12:18:00,50.1,19.1,30.31,WNW,293,0.0,2.0,29,0.00,,CLR,0.00,VWS V14.01,2013-03-04 17:18:00,
2013-03-04 12:23:00,50.2,19.2,30.31,South,180,0.0,1.0,29,0.00,,CLR,0.00,VWS V14.01,2013-03-04 17:23:00,
2013-03-04 12:28:00,50.4,20.1,30.31,West,277,0.0,0.0,30,0.00,,CLR,0.00,VWS V14.01,2013-03-04 17:28:00,
2013-03-04 12:33:00,50.5,18.6,30.31,SSW,211,0.0,2.0,28,0.00,,CLR,0.00,VWS V14.01,2013-03-04 17:33:00,
2013-03-04 12:38:00,50.8,19.7,30.31,NNW,328,0.0,2.0,29,0.00,,CLR,0.00,VWS V14.01,2013-03-04 17:38:00,
2013-03-04 12:43:00,51.7,19.7,30.31,NNW,330,0.0,2.0,28,0.00,,CLR,0.00,VWS V14.01,2013-03-04 17:43:00,
2013-03-04 12:48:00,52.3,21.0,30.29,SW,218,0.0,0.0,29,0.00,,CLR,0.00,VWS V14.01,2013-03-04 17:48:00,
2013-03-04 12:53:00,52.0,19.1,30.29,NW,321,0.0,2.0,27,0.00,,CLR,0.00,VWS V14.01,2013-03-04 17:53:00,
2013-03-04 12:58:00,52.0,19.9,30.29,South,180,0.0,1.0,28,0.00,,CLR,0.00,VWS V14.01,2013-03-04 17:58:00,
2013-03-04 13:03:00,52.3,19.3,30.29,South,184,0.0,2.0,27,0.00,,CLR,0.00,VWS V14.01,2013-03-04 18:03:00,
2013-03-04 13:08:00,51.9,19.0,30.29,WNW,295,1.0,3.0,27,0.00,,CLR,0.00,VWS V14.01,2013-03-04 18:08:00,
2013-03-04 13:13:00,51.6,18.7,30.29,SW,221,0.0,3.0,27,0.00,,CLR,0.00,VWS V14.01,2013-03-04 18:13:00,
2013-03-04 13:18:00,52.3,19.3,30.28,WSW,243,1.0,4.0,27,0.00,,CLR,0.00,VWS V14.01,2013-03-04 18:18:00,
2013-03-04 13:23:00,52.8,19.8,30.28,SW,224,1.0,7.0,27,0.00,,CLR,0.00,VWS V14.01,2013-03-04 18:23:00,
2013-03-04 13:28:00,53.2,20.1,30.28,NE,47,0.0,4.0,27,0.00,,CLR,0.00,VWS V14.01,2013-03-04 18:28:00,
2013-03-04 13:30:00,53.5,19.5,30.28,NE,49,0.0,0.0,26,0.00,,CLR,0.00,VWS V14.01,2013-03-04 18:30:00,
2013-03-04 13:31:00,53.6,20.5,30.28,NW,311,0.0,1.0,27,0.00,,CLR,0.00,VWS V14.01,2013-03-04 18:31:00,
2013-03-04 13:37:00,53.9,19.8,30.27,WSW,250,0.0,1.0,26,0.00,,CLR,0.00,VWS V14.01,2013-03-04 18:37:00,
2013-03-04 13:42:00,53.6,18.6,30.27,South,173,0.0,0.0,25,0.00,,CLR,0.00,VWS V14.01,2013-03-04 18:42:00,
2013-03-04 13:47:00,53.2,18.3,30.27,SW,222,2.0,3.0,25,0.00,,CLR,0.00,VWS V14.01,2013-03-04 18:47:00,
2013-03-04 13:52:00,53.3,18.4,30.27,SW,216,0.0,2.0,25,0.00,,CLR,0.00,VWS V14.01,2013-03-04 18:52:00,
2013-03-04 13:57:00,54.2,21.0,30.27,SSW,201,0.0,4.0,27,0.00,,CLR,0.00,VWS V14.01,2013-03-04 18:57:00,
2013-03-04 14:02:00,54.2,18.2,30.26,North,349,2.0,2.0,24,0.00,,FEW250,0.00,VWS V14.01,2013-03-04 19:02:00,
2013-03-04 14:07:00,54.4,19.3,30.26,WSW,250,0.0,4.0,25,0.00,,FEW250,0.00,VWS V14.01,2013-03-04 19:07:00,
2013-03-04 14:12:00,54.5,19.4,30.26,North,354,0.0,1.0,25,0.00,,FEW250,0.00,VWS V14.01,2013-03-04 19:12:00,
2013-03-04 14:17:00,55.1,19.0,30.26,South,180,0.0,0.0,24,0.00,,FEW250,0.00,VWS V14.01,2013-03-04 19:17:00,
2013-03-04 14:22:00,55.4,18.2,30.26,SW,218,3.0,4.0,23,0.00,,FEW250,0.00,VWS V14.01,2013-03-04 19:22:00,
2013-03-04 14:27:00,54.8,20.6,30.26,SW,224,1.0,1.0,26,0.00,,FEW250,0.00,VWS V14.01,2013-03-04 19:27:00,
2013-03-04 14:32:00,55.1,18.0,30.26,South,186,0.0,0.0,23,0.00,,FEW250,0.00,VWS V14.01,2013-03-04 19:32:00,
2013-03-04 14:37:00,55.0,17.9,30.26,WSW,245,2.0,2.0,23,0.00,,FEW250,0.00,VWS V14.01,2013-03-04 19:37:00,
2013-03-04 14:42:00,55.6,19.4,30.26,West,270,1.0,1.0,24,0.00,,FEW250,0.00,VWS V14.01,2013-03-04 19:42:00,
2013-03-04 14:47:00,55.4,19.2,30.25,West,276,0.0,3.0,24,0.00,,FEW250,0.00,VWS V14.01,2013-03-04 19:47:00,
2013-03-04 14:53:00,55.1,19.0,30.25,WSW,247,0.0,0.0,24,0.00,,FEW250,0.00,VWS V14.01,2013-03-04 19:53:00,
2013-03-04 14:58:00,55.6,18.4,30.25,SSW,204,0.0,3.0,23,0.00,,FEW250,0.00,VWS V14.01,2013-03-04 19:58:00,
2013-03-04 15:03:00,55.7,18.5,30.26,SSE,148,0.0,1.0,23,0.00,,FEW250,0.00,VWS V14.01,2013-03-04 20:03:00,
2013-03-04 15:08:00,56.3,18.0,30.26,WSW,248,2.0,6.0,22,0.00,,FEW250,0.00,VWS V14.01,2013-03-04 20:08:00,
2013-03-04 15:13:00,56.5,19.2,30.26,ENE,67,0.0,0.0,23,0.00,,FEW250,0.00,VWS V14.01,2013-03-04 20:13:00,
2013-03-04 15:18:00,57.0,18.5,30.25,West,273,1.0,1.0,22,0.00,,FEW250,0.00,VWS V14.01,2013-03-04 20:18:00,
2013-03-04 15:23:00,57.5,20.0,30.25,WSW,257,0.0,0.0,23,0.00,,FEW250,0.00,VWS V14.01,2013-03-04 20:23:00,
2013-03-04 15:28:00,57.5,21.0,30.25,South,188,1.0,1.0,24,0.00,,FEW250,0.00,VWS V14.01,2013-03-04 20:28:00,
2013-03-04 15:34:00,56.9,18.5,30.25,WSW,241,0.0,3.0,22,0.00,,FEW250,0.00,VWS V14.01,2013-03-04 20:34:00,
2013-03-04 15:39:00,56.6,18.2,30.25,SSE,166,0.0,0.0,22,0.00,,FEW250,0.00,VWS V14.01,2013-03-04 20:39:00,
2013-03-04 15:44:00,57.3,19.8,30.25,SW,229,0.0,3.0,23,0.00,,FEW250,0.00,VWS V14.01,2013-03-04 20:44:00,
2013-03-04 15:49:00,57.3,19.8,30.25,SW,230,0.0,0.0,23,0.00,,FEW250,0.00,VWS V14.01,2013-03-04 20:49:00,
2013-03-04 15:54:00,57.5,20.0,30.25,ESE,108,0.0,0.0,23,0.00,,FEW250,0.00,VWS V14.01,2013-03-04 20:54:00,
2013-03-04 15:59:00,57.8,19.2,30.25,SW,236,0.0,0.0,22,0.00,,FEW250,0.00,VWS V14.01,2013-03-04 20:59:00,
2013-03-04 16:04:00,58.0,20.4,30.25,South,188,0.0,0.0,23,0.00,,FEW250,0.00,VWS V14.01,2013-03-04 21:04:00,
2013-03-04 16:09:00,58.1,20.5,30.25,South,181,0.0,2.0,23,0.00,,FEW250,0.00,VWS V14.01,2013-03-04 21:09:00,
2013-03-04 16:14:00,58.3,19.6,30.25,West,277,0.0,0.0,22,0.00,,FEW250,0.00,VWS V14.01,2013-03-04 21:14:00,
2013-03-04 16:19:00,58.3,19.6,30.25,SW,231,0.0,1.0,22,0.00,,FEW250,0.00,VWS V14.01,2013-03-04 21:19:00,
2013-03-04 16:24:00,58.0,19.4,30.25,West,278,0.0,1.0,22,0.00,,FEW250,0.00,VWS V14.01,2013-03-04 21:24:00,
2013-03-04 16:29:00,58.0,20.4,30.25,WNW,292,0.0,0.0,23,0.00,,FEW250,0.00,VWS V14.01,2013-03-04 21:29:00,
2013-03-04 16:34:00,58.3,19.6,30.25,West,277,0.0,0.0,22,0.00,,FEW250,0.00,VWS V14.01,2013-03-04 21:34:00,
2013-03-04 16:39:00,58.3,19.6,30.25,WSW,237,0.0,0.0,22,0.00,,FEW250,0.00,VWS V14.01,2013-03-04 21:39:00,
2013-03-04 16:44:00,58.6,19.9,30.25,NNW,329,0.0,0.0,22,0.00,,FEW250,0.00,VWS V14.01,2013-03-04 21:44:00,
2013-03-04 16:49:00,58.3,18.6,30.25,WSW,239,0.0,1.0,21,0.00,,FEW250,0.00,VWS V14.01,2013-03-04 21:49:00,
2013-03-04 16:54:00,57.6,19.1,30.25,WSW,248,0.0,0.0,22,0.00,,FEW250,0.00,VWS V14.01,2013-03-04 21:54:00,
2013-03-04 16:59:00,57.5,19.0,30.25,WSW,248,0.0,0.0,22,0.00,,FEW250,0.00,VWS V14.01,2013-03-04 21:59:00,
2013-03-04 17:04:00,57.8,19.2,30.25,SSE,149,0.0,1.0,22,0.00,,FEW250,0.00,VWS V14.01,2013-03-04 22:04:00,
2013-03-04 17:09:00,57.6,19.1,30.25,SW,232,0.0,0.0,22,0.00,,FEW250,0.00,VWS V14.01,2013-03-04 22:09:00,
2013-03-04 17:14:00,57.5,19.0,30.25,SW,232,0.0,0.0,22,0.00,,FEW250,0.00,VWS V14.01,2013-03-04 22:14:00,
2013-03-04 17:19:00,57.5,20.0,30.25,SSE,150,0.0,0.0,23,0.00,,FEW250,0.00,VWS V14.01,2013-03-04 22:19:00,
2013-03-04 17:24:00,57.5,19.0,30.25,SSE,163,0.0,0.0,22,0.00,,FEW250,0.00,VWS V14.01,2013-03-04 22:24:00,
2013-03-04 17:30:00,57.2,19.8,30.25,SSE,163,0.0,1.0,23,0.00,,FEW250,0.00,VWS V14.01,2013-03-04 22:30:00,
2013-03-04 17:35:00,57.0,19.6,30.26,NNE,25,0.0,0.0,23,0.00,,FEW250,0.00,VWS V14.01,2013-03-04 22:35:00,
2013-03-04 17:40:00,56.9,19.5,30.26,NNE,25,0.0,0.0,23,0.00,,FEW250,0.00,VWS V14.01,2013-03-04 22:40:00,
2013-03-04 17:45:00,56.5,20.2,30.26,WSW,252,0.0,0.0,24,0.00,,FEW250,0.00,VWS V14.01,2013-03-04 22:45:00,
2013-03-04 17:50:00,55.9,19.6,30.26,WSW,255,0.0,0.0,24,0.00,,FEW250,0.00,VWS V14.01,2013-03-04 22:50:00,
2013-03-04 17:55:00,55.1,19.9,30.26,WSW,255,0.0,0.0,25,0.00,,FEW250,0.00,VWS V14.01,2013-03-04 22:55:00,
2013-03-04 18:00:00,54.4,19.3,30.26,WSW,255,0.0,0.0,25,0.00,,FEW250,0.00,VWS V14.01,2013-03-04 23:00:00,
2013-03-04 18:05:00,53.8,19.7,30.26,WSW,255,0.0,0.0,26,0.00,,FEW250,0.00,VWS V14.01,2013-03-04 23:05:00,
2013-03-04 18:10:00,53.3,19.3,30.26,WSW,255,0.0,0.0,26,0.00,,FEW250,0.00,VWS V14.01,2013-03-04 23:10:00,
2013-03-04 18:15:00,53.1,20.0,30.26,WSW,255,0.0,0.0,27,0.00,,FEW250,0.00,VWS V14.01,2013-03-04 23:15:00,
2013-03-04 18:20:00,52.6,19.6,30.26,WSW,255,0.0,0.0,27,0.00,,FEW250,0.00,VWS V14.01,2013-03-04 23:20:00,
2013-03-04 18:25:00,52.2,20.1,30.26,WSW,255,0.0,0.0,28,0.00,,FEW250,0.00,VWS V14.01,2013-03-04 23:25:00,
2013-03-04 18:30:00,51.9,19.8,30.26,WSW,255,0.0,0.0,28,0.00,,FEW250,0.00,VWS V14.01,2013-03-04 23:30:00,
2013-03-04 18:35:00,51.4,20.2,30.27,WSW,255,0.0,0.0,29,0.00,,FEW250,0.00,VWS V14.01,2013-03-04 23:35:00,
2013-03-04 18:40:00,50.7,20.4,30.27,WSW,255,0.0,0.0,30,0.00,,FEW250,0.00,VWS V14.01,2013-03-04 23:40:00,
2013-03-04 18:45:00,49.8,21.1,30.27,WSW,255,0.0,0.0,32,0.00,,FEW250,0.00,VWS V14.01,2013-03-04 23:45:00,
2013-03-04 18:50:00,49.1,21.3,30.27,WSW,255,0.0,0.0,33,0.00,,FEW250,0.00,VWS V14.01,2013-03-04 23:50:00,
2013-03-04 18:55:00,48.3,21.9,30.27,WSW,255,0.0,0.0,35,0.00,,FEW250,0.00,VWS V14.01,2013-03-04 23:55:00,
2013-03-04 19:00:00,47.6,22.0,30.27,WSW,255,0.0,0.0,36,0.00,,CLR,0.00,VWS V14.01,2013-03-05 00:00:00,
2013-03-04 19:05:00,47.0,22.7,30.28,WSW,255,0.0,0.0,38,0.00,,CLR,0.00,VWS V14.01,2013-03-05 00:05:00,
2013-03-04 19:10:00,46.4,23.4,30.28,WSW,255,0.0,0.0,40,0.00,,CLR,0.00,VWS V14.01,2013-03-05 00:10:00,
2013-03-04 19:16:00,46.0,23.6,30.28,WSW,255,0.0,0.0,41,0.00,,CLR,0.00,VWS V14.01,2013-03-05 00:16:00,
2013-03-04 19:21:00,45.7,23.9,30.29,WSW,255,0.0,0.0,42,0.00,,CLR,0.00,VWS V14.01,2013-03-05 00:21:00,
2013-03-04 19:26:00,45.5,23.8,30.29,WSW,255,0.0,0.0,42,0.00,,CLR,0.00,VWS V14.01,2013-03-05 00:26:00,
2013-03-04 19:31:00,45.8,24.0,30.29,WSW,255,0.0,0.0,42,0.00,,CLR,0.00,VWS V14.01,2013-03-05 00:31:00,
2013-03-04 19:36:00,46.0,23.6,30.29,WSW,255,0.0,0.0,41,0.00,,CLR,0.00,VWS V14.01,2013-03-05 00:36:00,
2013-03-04 19:41:00,46.0,24.8,30.29,WSW,255,0.0,0.0,43,0.00,,CLR,0.00,VWS V14.01,2013-03-05 00:41:00,
2013-03-04 19:46:00,45.8,24.6,30.29,WSW,255,0.0,0.0,43,0.00,,CLR,0.00,VWS V14.01,2013-03-05 00:46:00,
2013-03-04 19:51:00,45.7,24.5,30.29,WSW,255,0.0,0.0,43,0.00,,CLR,0.00,VWS V14.01,2013-03-05 00:51:00,
2013-03-04 19:56:00,46.0,25.3,30.29,WSW,255,0.0,0.0,44,0.00,,CLR,0.00,VWS V14.01,2013-03-05 00:56:00,
2013-03-04 20:01:00,46.0,25.3,30.29,WSW,255,0.0,0.0,44,0.00,,CLR,0.00,VWS V14.01,2013-03-05 01:01:00,
2013-03-04 20:07:00,46.0,26.9,30.29,WSW,255,0.0,0.0,47,0.00,,CLR,0.00,VWS V14.01,2013-03-05 01:07:00,
2013-03-04 20:12:00,45.8,27.2,30.29,WSW,255,0.0,0.0,48,0.00,,CLR,0.00,VWS V14.01,2013-03-05 01:12:00,
2013-03-04 20:17:00,45.8,29.7,30.29,WSW,255,0.0,0.0,53,0.00,,CLR,0.00,VWS V14.01,2013-03-05 01:17:00,
2013-03-04 20:22:00,45.8,31.0,30.29,WSW,255,0.0,0.0,56,0.00,,CLR,0.00,VWS V14.01,2013-03-05 01:22:00,
2013-03-04 20:27:00,45.7,31.8,30.29,WSW,255,0.0,0.0,58,0.00,,CLR,0.00,VWS V14.01,2013-03-05 01:27:00,
2013-03-04 20:32:00,45.5,32.4,30.30,WSW,255,0.0,0.0,60,0.00,,CLR,0.00,VWS V14.01,2013-03-05 01:32:00,
2013-03-04 20:37:00,45.5,32.8,30.30,South,186,0.0,0.0,61,0.00,,CLR,0.00,VWS V14.01,2013-03-05 01:37:00,
2013-03-04 20:42:00,45.2,32.6,30.30,South,186,0.0,0.0,61,0.00,,CLR,0.00,VWS V14.01,2013-03-05 01:42:00,
2013-03-04 20:47:00,45.1,33.3,30.31,SW,216,0.0,0.0,63,0.00,,CLR,0.00,VWS V14.01,2013-03-05 01:47:00,
2013-03-04 20:52:00,44.9,33.1,30.31,SW,223,0.0,1.0,63,0.00,,CLR,0.00,VWS V14.01,2013-03-05 01:52:00,
2013-03-04 20:57:00,44.9,33.1,30.31,SW,217,0.0,0.0,63,0.00,,CLR,0.00,VWS V14.01,2013-03-05 01:57:00,
2013-03-04 21:03:00,44.8,33.4,30.30,SW,217,0.0,0.0,64,0.00,,CLR,0.00,VWS V14.01,2013-03-05 02:03:00,
2013-03-04 21:08:00,44.6,33.2,30.30,SW,219,0.0,0.0,64,0.00,,CLR,0.00,VWS V14.01,2013-03-05 02:08:00,
2013-03-04 21:13:00,44.5,33.5,30.30,SW,219,0.0,0.0,65,0.00,,CLR,0.00,VWS V14.01,2013-03-05 02:13:00,
2013-03-04 21:18:00,44.3,33.7,30.30,SW,219,0.0,0.0,66,0.00,,CLR,0.00,VWS V14.01,2013-03-05 02:18:00,
2013-03-04 21:23:00,44.2,33.6,30.30,SW,219,0.0,0.0,66,0.00,,CLR,0.00,VWS V14.01,2013-03-05 02:23:00,
2013-03-04 21:28:00,44.1,33.9,30.30,SW,219,0.0,0.0,67,0.00,,CLR,0.00,VWS V14.01,2013-03-05 02:28:00,
2013-03-04 21:33:00,44.1,33.9,30.30,SW,219,0.0,0.0,67,0.00,,CLR,0.00,VWS V14.01,2013-03-05 02:33:00,
2013-03-04 21:38:00,43.9,34.0,30.30,SW,219,0.0,0.0,68,0.00,,CLR,0.00,VWS V14.01,2013-03-05 02:38:00,
2013-03-04 21:43:00,43.9,34.0,30.30,SW,219,0.0,0.0,68,0.00,,CLR,0.00,VWS V14.01,2013-03-05 02:43:00,
2013-03-04 21:48:00,43.9,34.0,30.30,SW,219,0.0,0.0,68,0.00,,CLR,0.00,VWS V14.01,2013-03-05 02:48:00,
2013-03-04 21:53:00,43.8,33.9,30.30,SW,219,0.0,0.0,68,0.00,,CLR,0.00,VWS V14.01,2013-03-05 02:53:00,
2013-03-04 21:58:00,43.6,34.1,30.30,SW,219,0.0,0.0,69,0.00,,CLR,0.00,VWS V14.01,2013-03-05 02:58:00,
2013-03-04 22:03:00,43.5,34.0,30.30,SW,219,0.0,0.0,69,0.00,,CLR,0.00,VWS V14.01,2013-03-05 03:03:00,
2013-03-04 22:08:00,43.3,33.8,30.30,SW,219,0.0,0.0,69,0.00,,CLR,0.00,VWS V14.01,2013-03-05 03:08:00,
2013-03-04 22:13:00,43.1,33.6,30.30,SW,219,0.0,0.0,69,0.00,,CLR,0.00,VWS V14.01,2013-03-05 03:13:00,
2013-03-04 22:18:00,42.8,33.7,30.30,SW,219,0.0,0.0,70,0.00,,CLR,0.00,VWS V14.01,2013-03-05 03:18:00,
2013-03-04 22:23:00,42.3,33.6,30.30,SW,219,0.0,0.0,71,0.00,,CLR,0.00,VWS V14.01,2013-03-05 03:23:00,
2013-03-04 22:28:00,42.2,33.8,30.30,SW,219,0.0,0.0,72,0.00,,CLR,0.00,VWS V14.01,2013-03-05 03:28:00,
2013-03-04 22:33:00,42.3,34.6,30.30,SW,219,0.0,0.0,74,0.00,,CLR,0.00,VWS V14.01,2013-03-05 03:33:00,
2013-03-04 22:38:00,42.5,34.8,30.30,SW,219,0.0,0.0,74,0.00,,CLR,0.00,VWS V14.01,2013-03-05 03:38:00,
2013-03-04 22:43:00,42.6,34.9,30.30,SW,219,0.0,0.0,74,0.00,,CLR,0.00,VWS V14.01,2013-03-05 03:43:00,
2013-03-04 22:48:00,42.9,35.5,30.30,SW,219,0.0,0.0,75,0.00,,CLR,0.00,VWS V14.01,2013-03-05 03:48:00,
2013-03-04 22:53:00,43.1,35.7,30.30,SW,219,0.0,0.0,75,0.00,,CLR,0.00,VWS V14.01,2013-03-05 03:53:00,
2013-03-04 22:58:00,43.1,35.7,30.30,SW,219,0.0,0.0,75,0.00,,CLR,0.00,VWS V14.01,2013-03-05 03:58:00,
2013-03-04 23:03:00,43.2,35.5,30.29,SW,219,0.0,0.0,74,0.00,,BKN150,0.00,VWS V14.01,2013-03-05 04:03:00,
2013-03-04 23:08:00,43.1,35.7,30.29,SW,219,0.0,0.0,75,0.00,,BKN150,0.00,VWS V14.01,2013-03-05 04:08:00,
2013-03-04 23:14:00,43.1,35.7,30.29,SW,219,0.0,0.0,75,0.00,,BKN150,0.00,VWS V14.01,2013-03-05 04:14:00,
2013-03-04 23:19:00,43.2,35.8,30.29,SW,219,0.0,0.0,75,0.00,,BKN150,0.00,VWS V14.01,2013-03-05 04:19:00,
2013-03-04 23:24:00,43.2,35.8,30.29,SW,219,0.0,0.0,75,0.00,,BKN150,0.00,VWS V14.01,2013-03-05 04:24:00,
2013-03-04 23:29:00,43.3,35.9,30.29,SW,219,0.0,0.0,75,0.00,,BKN150,0.00,VWS V14.01,2013-03-05 04:29:00,
2013-03-04 23:34:00,43.5,36.1,30.28,SW,219,0.0,0.0,75,0.00,,BKN150,0.00,VWS V14.01,2013-03-05 04:34:00,
2013-03-04 23:39:00,43.5,36.5,30.28,SW,219,0.0,0.0,76,0.00,,BKN150,0.00,VWS V14.01,2013-03-05 04:39:00,
2013-03-04 23:44:00,43.6,36.9,30.28,SW,219,0.0,0.0,77,0.00,,BKN150,0.00,VWS V14.01,2013-03-05 04:44:00,
2013-03-04 23:49:00,43.8,37.1,30.28,SW,219,0.0,0.0,77,0.00,,BKN150,0.00,VWS V14.01,2013-03-05 04:49:00,
2013-03-04 23:54:00,43.9,37.2,30.28,SW,219,0.0,0.0,77,0.00,,BKN150,0.00,VWS V14.01,2013-03-05 04:54:00,
2013-03-04 23:59:00,44.1,37.4,30.28,SW,219,0.0,0.0,77,0.00,,BKN150,0.00,VWS V14.01,2013-03-05 04:59:00,